Location: Newark
(52.5667°N, 8.8000°W)
Time: 01:11:51
(UTC+00:00)

N. Korean satellite - Pass Details

Date: 26 January 2020
Orbit: 456 x 505 km, 97.2° (Epoch: 21 February)

Event Time Altitude Azimuth Distance (km) Brightness Sun altitude
Rises 06:49:01 0° 11° (N) 2,535 10.2 -14.6°
Reaches altitude 10° 06:51:04 10° 8° (N) 1,660 9.2 -14.3°
Maximum altitude 06:54:37 66° 286° (WNW) 533 6.5 -13.8°
Drops below altitude 10° 06:58:11 10° 204° (SSW) 1,674 9.2 -13.3°
Sets 07:00:16 0° 202° (SSW) 2,559 10.2 -13.0°
